Weather History for Jacksonville, FL

Change the Weather History Date:

Wednesday, August 28, 2013

  Actual Average Record
Temperature  
Mean Temperature 80 °F 81 °F  
Max Temperature 90 °F 90 °F 97 °F (1959)
Min Temperature 69 °F 72 °F 64 °F (2014)
Degree Days  
Heating Degree Days 0 0  
Month to date heating degree days 0 0  
Since 1 June heating degree days 0 0  
Since 1 July heating degree days 0 0  
Cooling Degree Days 15 16  
Month to date cooling degree days 478 471  
Year to date cooling degree days 1877 1940  
Since 1 June cooling degree days 1441 1456  
Growing Degree Days 30 (Base 50)    
Moisture  
Dew Point 68 °F    
Average Humidity 74    
Maximum Humidity 100    
Minimum Humidity 47    
Precipitation  
Precipitation 0.00 in 0.25 in 7.82 in (1968)
Month to date precipitation 4.77 6.03  
Year to date precipitation 35.18 34.59  
Snow  
Snow 0.00 in 0.00 in 0.00 in (2002)
Month to date snowfall 0.0 0.0  
Since 1 June snowfall 0.0 0.0  
Since 1 July snowfall 0.0 0.0  
Snow Depth 0.00 in    
Sea Level Pressure  
Sea Level Pressure 30.03 in    
Wind  
Wind Speed 3 mph (South)    
Max Wind Speed 14 mph    
Max Gust Speed 18 mph    
Visibility 10 miles    
Events      
T = Trace of Precipitation, MM = Missing Value Source: NWS Daily Summary

Daily Weather History Graph

Daily Weather History Graph

Search for Another Location

Airport:

Trip Planner

Search our weather history database for the weather conditions in past years. The results will help you decide how hot, cold, wet, or windy it might be!

Date:

Astronomy

Aug. 28, 2013 Rise Set
Actual Time 7:01 AM EDT 7:54 PM EDT
Civil Twilight 6:36 AM EDT 8:18 PM EDT
Nautical Twilight 6:07 AM EDT 8:47 PM EDT
Astronomical Twilight 5:37 AM EDT 9:17 PM EDT
Moon 12:18 AM EDT (8/28) 2:18 PM EDT (8/28)
Length of Visible Light 13h 42m
Length of Day
12h 52m
Waning Gibbous, 47% of the Moon is Illuminated
Aug 28
Waning Gibbous
Sep 5
New
Sep 12
First Quarter
Sep 19
Full
Sep 26
Last Quarter

Hourly Weather History & Observations

Time (EDT) Temp. Heat Index Dew Point Humidity Pressure Visibility Wind Dir Wind Speed Gust Speed Precip Events Conditions
12:56 AM 73.0 °F - 70.0 °F 90% 30.05 in 10.0 mi Calm Calm - N/A   Mostly Cloudy
1:56 AM 72.0 °F - 69.1 °F 91% 30.05 in 10.0 mi Calm Calm - N/A   Mostly Cloudy
2:56 AM 71.1 °F - 69.1 °F 93% 30.03 in 10.0 mi Calm Calm - N/A   Mostly Cloudy
3:56 AM 70.0 °F - 69.1 °F 97% 30.01 in 10.0 mi Calm Calm - N/A   Partly Cloudy
4:56 AM 70.0 °F - 68.0 °F 93% 30.01 in 10.0 mi Calm Calm - N/A   Partly Cloudy
5:56 AM 69.1 °F - 68.0 °F 96% 30.01 in 10.0 mi Calm Calm - N/A   Mostly Cloudy
6:56 AM 69.1 °F - 68.0 °F 96% 30.02 in 10.0 mi Calm Calm - N/A   Mostly Cloudy
7:56 AM 72.0 °F - 69.1 °F 91% 30.04 in 10.0 mi Calm Calm - N/A   Mostly Cloudy
8:56 AM 75.9 °F - 71.1 °F 85% 30.05 in 10.0 mi Calm Calm - N/A   Mostly Cloudy
9:56 AM 80.1 °F 82.7 °F 68.0 °F 67% 30.07 in 10.0 mi SW 3.5 mph - N/A   Mostly Cloudy
10:50 AM 84.2 °F 86.6 °F 66.2 °F 55% 30.07 in 1.8 mi South 3.5 mph - N/A   Haze
10:56 AM 84.0 °F 86.5 °F 66.9 °F 56% 30.07 in 10.0 mi Calm Calm - N/A   Mostly Cloudy
11:56 AM 84.9 °F 87.1 °F 66.0 °F 53% 30.07 in 10.0 mi SW 4.6 mph - N/A   Mostly Cloudy
12:56 PM 86.0 °F 88.2 °F 66.0 °F 51% 30.06 in 10.0 mi Calm Calm - N/A   Mostly Cloudy
1:56 PM 87.1 °F 89.9 °F 66.9 °F 51% 30.05 in 10.0 mi Calm Calm - N/A   Mostly Cloudy
2:56 PM 88.0 °F 90.3 °F 66.0 °F 48% 30.02 in 10.0 mi Calm Calm - N/A   Mostly Cloudy
3:56 PM 89.1 °F 92.1 °F 66.9 °F 48% 29.99 in 10.0 mi WSW 3.5 mph - N/A   Mostly Cloudy
4:56 PM 88.0 °F 92.9 °F 70.0 °F 55% 29.99 in 10.0 mi ENE 11.5 mph - N/A   Mostly Cloudy
5:56 PM 86.0 °F 90.1 °F 69.1 °F 57% 29.98 in 10.0 mi SE 11.5 mph - N/A   Scattered Clouds
6:56 PM 84.0 °F 87.8 °F 69.1 °F 61% 29.98 in 10.0 mi SE 12.7 mph - N/A   Scattered Clouds
7:56 PM 81.0 °F 83.8 °F 68.0 °F 65% 29.99 in 10.0 mi SE 9.2 mph - N/A   Scattered Clouds
8:56 PM 79.0 °F - 68.0 °F 69% 30.01 in 10.0 mi SSE 6.9 mph - N/A   Scattered Clouds
9:56 PM 78.1 °F - 68.0 °F 71% 30.02 in 10.0 mi South 4.6 mph - N/A   Mostly Cloudy
10:56 PM 78.1 °F - 69.1 °F 74% 30.03 in 10.0 mi South 3.5 mph - N/A   Mostly Cloudy
11:56 PM 75.9 °F - 69.1 °F 79% 30.03 in 10.0 mi South 3.5 mph - N/A   Scattered Clouds